Le Luc, France

2:33 AM CEST on 五月 27, 2017 (GMT +0200)
Le Cannet Army

天気 に付いての歴史 LFMC - 五月, 2017

Change the Weather History Date:

金曜日, 五月 19, 2017

  Actual Average Record
Temperature  
平均温度 66 °F -  
最高温度 74 °F 73 °F - ()
最低温度 57 °F 58 °F - ()
Growing Degree Days 16 (Base 50)    
Moisture  
露点温度 47 °F    
Average Humidity 55    
Maximum Humidity 95    
Minimum Humidity 17    
降水確率  
降水確率 0.01 インチ - - ()
海面圧  
海面圧 29.94 インチ    
 
風速 8 Mph ()    
最大風速 21 Mph    
Max Gust Speed -    
視程 7.5 マイル    
イベント    
T = Trace of Precipitation, MM = Missing Value Source: Averaged Metar Reports

Daily Weather History Graph

Daily Weather History Graph

Search for Another Location

Airport or City:

Trip Planner

Search our weather history database for the weather conditions in past years. The results will help you decide how hot, cold, wet, or windy it might be!

Date:

天文

May. 19, 2017 入り
実時間 6:06 AM CEST 8:56 PM CEST
常用薄明 5:32 AM CEST 9:29 PM CEST
航海薄明 4:50 AM CEST 10:12 PM CEST
天文薄明 4:01 AM CEST 11:01 PM CEST
2:35 AM CEST (5/19) 1:28 PM CEST (5/19)
可視光の長さ 15h 57m
可照時間
14h 50m
第 4 四半期, 46% of the Moon is Illuminated
5月 19
第 4 四半期
5月 25
新しい
6月 1
上弦
6月 9
満月
6月 17
第 4 四半期

Hourly Weather History & Observations

時間 (CEST) 温度 露点温度 湿度 気圧 視程 Wind Dir 風速 突風の速度 Precip イベント 現在の気象状況
12:00 AM 61 °F 51 °F 61% 29.94 インチ 31 マイル 北東 2.3 Mph - -  
12:00 AM 60.8 °F 51.8 °F 72% 29.92 インチ 6.2 マイル 北東 2.3 Mph - N/A   情報なし
1:00 AM 60.8 °F 51.8 °F 72% 29.92 インチ 6.2 マイル 東南東 3.5 Mph - N/A   情報なし
1:30 AM 60.8 °F 51.8 °F 72% 29.92 インチ - 西南西 4.6 Mph - N/A  
2:00 AM 61 °F 51 °F 62% 29.94 インチ 31 マイル 南南西 2.3 Mph - -  
2:00 AM 60.8 °F 51.8 °F 72% 29.92 インチ - 変数 2.3 Mph - N/A  
2:30 AM 60.8 °F 51.8 °F 72% 29.92 インチ - 変数 2.3 Mph - N/A  
3:00 AM 60 °F 52 °F 66% 29.92 インチ 31 マイル ほぼ無風 ほぼ無風 - -  
3:00 AM 59.0 °F 51.8 °F 77% 29.92 インチ - ほぼ無風 ほぼ無風 - N/A  
3:30 AM 59.0 °F 51.8 °F 77% 29.92 インチ - 変数 1.2 Mph - N/A  
4:00 AM 59 °F 54 °F 77% 29.91 インチ 11 マイル 南東 2.3 Mph - - 小雨
4:00 AM 59.0 °F 53.6 °F 82% 29.92 インチ 6.2 マイル 変数 2.3 Mph - N/A   所により曇
4:30 AM 57.2 °F 53.6 °F 88% 29.89 インチ 6.2 マイル 変数 2.3 Mph - N/A   情報なし
5:00 AM 60 °F 55 °F 78% 29.94 インチ 10 マイル 西 6.9 Mph - - 小雨
5:00 AM 59.0 °F 55.4 °F 88% 29.92 インチ 6.2 マイル 西 6.9 Mph - N/A 小雨
5:30 AM 59.0 °F 57.2 °F 94% 29.92 インチ 6.2 マイル 変数 2.3 Mph - N/A   所により曇
6:00 AM 58 °F 56 °F 90% 29.94 インチ 6 マイル 2.3 Mph - - 小雨
6:00 AM 57.2 °F 55.4 °F 94% 29.92 インチ 6.2 マイル 変数 2.3 Mph - N/A 小雨
6:30 AM 57.2 °F 55.4 °F 94% 29.92 インチ 6.2 マイル 1.2 Mph - N/A 小雨
7:00 AM 58 °F 57 °F 95% 29.93 インチ 6 マイル 東南東 2.3 Mph - -   所により曇
7:00 AM 59.0 °F 57.2 °F 94% 29.92 インチ 6.2 マイル 変数 2.3 Mph - N/A   だいたい曇
8:00 AM 59 °F 57 °F 92% 29.93 インチ 6 マイル 西 2.3 Mph - -   所により曇
8:00 AM 59.0 °F 57.2 °F 94% 29.92 インチ 6.2 マイル 変数 2.3 Mph - N/A   だいたい曇
9:00 AM 62 °F 56 °F 76% 29.95 インチ 19 マイル 西北西 11.5 Mph - -   だいたい曇
9:00 AM 60.8 °F 55.4 °F 82% 29.95 インチ 6.2 マイル 西北西 10.4 Mph - N/A   やや曇
10:00 AM 62 °F 53 °F 65% 29.96 インチ 19 マイル 西北西 15.0 Mph - -   所により曇
10:00 AM 62.6 °F 53.6 °F 72% 29.95 インチ 6.2 マイル 西北西 15.0 Mph - N/A   やや曇
11:00 AM 65 °F 53 °F 55% 29.96 インチ 19 マイル 西 11.5 Mph - -   だいたい曇
11:00 AM 64.4 °F 51.8 °F 64% 29.95 インチ 6.2 マイル 西 11.5 Mph - N/A   やや曇
12:00 PM 66.2 °F 51.8 °F 60% 29.95 インチ 6.2 マイル 西 13.8 Mph - N/A   やや曇
1:00 PM 68.0 °F 48.2 °F 49% 29.95 インチ 6.2 マイル 西北西 15.0 Mph - N/A   所により曇
2:00 PM 72 °F 49 °F 32% 29.93 インチ 19 マイル 西北西 15.0 Mph - -   所により曇
2:00 PM 71.6 °F 48.2 °F 43% 29.92 インチ 6.2 マイル 西 16.1 Mph - N/A   所により曇
2:30 PM 71.6 °F 48.2 °F 43% 29.92 インチ 6.2 マイル 西北西 20.7 Mph - N/A   情報なし
3:00 PM 73.4 °F 46.4 °F 38% 29.92 インチ 6.2 マイル 西 18.4 Mph - N/A   情報なし
3:30 PM 73.4 °F 44.6 °F 36% 29.92 インチ 6.2 マイル 西北西 15.0 Mph - N/A   情報なし
4:00 PM 73 °F 46 °F 26% 29.93 インチ 28 マイル 西 17.3 Mph - -  
4:00 PM 73.4 °F 44.6 °F 36% 29.92 インチ 6.2 マイル 西 17.3 Mph - N/A   情報なし
4:30 PM 73.4 °F 42.8 °F 33% 29.92 インチ 6.2 マイル 西 18.4 Mph - N/A   情報なし
5:00 PM 73 °F 42 °F 22% 29.93 インチ 25 マイル 西 17.3 Mph - -  
5:00 PM 73.4 °F 42.8 °F 33% 29.92 インチ 6.2 マイル 西 18.4 Mph - N/A   情報なし
5:30 PM 73.4 °F 39.2 °F 29% 29.92 インチ 6.2 マイル 西 20.7 Mph - N/A   情報なし
6:00 PM 72 °F 38 °F 18% 29.94 インチ 28 マイル 西 18.4 Mph - -  
6:00 PM 71.6 °F 39.2 °F 31% 29.92 インチ 6.2 マイル 西 18.4 Mph - N/A   情報なし
6:30 PM 71.6 °F 35.6 °F 27% 29.95 インチ 6.2 マイル 西 18.4 Mph - N/A   情報なし
7:00 PM 71 °F 36 °F 17% 29.95 インチ 28 マイル 西北西 19.6 Mph - -  
7:00 PM 71.6 °F 35.6 °F 27% 29.95 インチ 6.2 マイル 西北西 19.6 Mph - N/A   情報なし
7:30 PM 71.6 °F 35.6 °F 27% 29.95 インチ 6.2 マイル 西 19.6 Mph - N/A   情報なし
8:00 PM 69 °F 37 °F 20% 29.97 インチ 28 マイル 西北西 16.1 Mph - -  
8:00 PM 69.8 °F 37.4 °F 31% 29.95 インチ 6.2 マイル 西北西 16.1 Mph - N/A   情報なし
8:30 PM 68.0 °F 37.4 °F 33% 29.98 インチ 6.2 マイル 西 17.3 Mph - N/A   情報なし
9:00 PM 67 °F 37 °F 22% 29.97 インチ 31 マイル 西 16.1 Mph - -  
9:00 PM 68.0 °F 37.4 °F 33% 29.98 インチ 6.2 マイル 西 16.1 Mph - N/A   情報なし
9:30 PM 66.2 °F 39.2 °F 37% 29.98 インチ 6.2 マイル 西 17.3 Mph - N/A   情報なし
10:00 PM 65 °F 39 °F 27% 29.99 インチ 31 マイル 西 19.6 Mph - -  
10:00 PM 64.4 °F 39.2 °F 40% 29.98 インチ 6.2 マイル 西 18.4 Mph - N/A   情報なし
10:30 PM 64.4 °F 39.2 °F 40% 30.01 インチ 6.2 マイル 西 12.7 Mph - N/A   情報なし
11:00 PM 64 °F 40 °F 30% 30.00 インチ 31 マイル 西 16.1 Mph - -  
11:00 PM 64.4 °F 41.0 °F 42% 29.98 インチ 6.2 マイル 西 17.3 Mph - N/A   情報なし
11:30 PM 64.4 °F 41.0 °F 42% 29.98 インチ 6.2 マイル 西 17.3 Mph - N/A   情報なし